Location: Dattensoll
(49.9928°N, 9.8954°E)
Time: 23:41:23
(UTC+00:00)

Alouette 2 Rocket - Pass Details

Date: 19 May 2025
Orbit: 501 x 2618 km, 79.8° (Epoch: 22 June)

Event Time Altitude Azimuth Distance (km) Brightness Sun altitude
Rises 19:50:57 0° 342° (NNW) 2,613 8.0 -6.6°
Reaches altitude 10° 19:52:57 10° 338° (NNW) 1,737 7.1 -6.8°
Maximum altitude 19:56:30 59° 259° (WSW) 647 3.9 -7.2°
Drops below altitude 10° 20:00:51 10° 179° (S) 2,114 5.9 -7.7°
Enters shadow 20:03:14 - 177° (S) 3,140 6.7 -8.0°
